Regional Weather Roundup
Issued by NWS

Home | Current Version | Previous Version | Graphics & Text | Print | Product List | Glossary On
Versions: 1 2 3 4 5 6 7 8 9 10 11 12 13 14 15 16 17 18 19 20 21 22 23 24 25 26 27 28 29 30 31 32 33 34 35 36 37 38 39 40 41 42 43 44 45 46 47 48 49 50
000
ASUS43 KDMX 021008
RWRIA

WEATHER ROUNDUP FOR IOWA
NATIONAL WEATHER SERVICE DES MOINES IA
500 AM CDT MON MAY 02 2016

NOTE: "FAIR" INDICATES FEW OR NO CLOUDS BELOW 12,000 FEET WITH NO
SIGNIFICANT WEATHER AND/OR OBSTRUCTIONS TO VISIBILITY.

* - THESE STATIONS ARE NOT NWS STATIONS...THUS NOT UNDER NWS
QUALITY CONTROL.  THEY ALSO DO NOT REPORT WEATHER SUCH
AS PRECIPITATION OR FOG.

IAZ001>003-012>014-020>022-031>034-043>046-021100-
   NORTHWEST IOWA

CITY           SKY/WX    TMP DP  RH WIND       PRES   REMARKS
CARROLL *      PTCLDY    39  39 100 CALM      30.12S
CHEROKEE *     CLEAR     34  34 100 CALM      30.13F FOG
DENISON *      CLOUDY    45 N/A N/A N3        30.11S
LE MARS *      CLEAR     36  34  93 CALM      30.15S
ORANGE CITY *  CLEAR     39  36  87 NW3       30.13S
SHELDON *      CLEAR     36  36 100 CALM      30.12S
SIOUX CITY     CLEAR     37  34  89 NW6       30.14F WCI  32
SPENCER        CLEAR     36  33  89 W3        30.12F
STORM LAKE *   MOCLDY    43  37  81 NW9       30.12S
$$

IAZ055>058-069>071-079>083-090>094-021100-
   SOUTHWEST IOWA

CITY           SKY/WX    TMP DP  RH WIND       PRES   REMARKS
ATLANTIC *     PTCLDY    39  39 100 CALM      30.12S
AUDUBON *      CLEAR     36  34  93 CALM      30.13R
CLARINDA *       N/A    N/A N/A N/A MISG        N/A
COUNCIL BLFS * CLEAR     46  43  87 N7        30.12F
CRESTON *      CLOUDY    45  45 100 NW5       30.12S
HARLAN  *      CLEAR     43  41  93 CALM      30.16R
LAMONI         CLOUDY    46  45  96 N6        30.09F
RED OAK *      CLOUDY   118 N/A N/A N5        30.12F
SHENANDOAH *   CLOUDY    46  46 100 SW3       30.13S
$$

IAZ047>049-059>061-072>074-084-021100-
   CENTRAL IOWA

CITY           SKY/WX    TMP DP  RH WIND       PRES   REMARKS
AMES           CLEAR     39  39 100 N3        30.11S FOG
ANKENY *       CLEAR     41  41 100 CALM      30.11S FOG
BOONE *        CLEAR     39  39 100 NW7       30.10S WCI  34
CHARITON *     CLOUDY    46  46 100 NW5       30.10R
DES MOINES     CLEAR     42  39  89 CALM      30.11S
GRINNELL*      CLEAR     41  39  93 NW6       30.10S
KNOXVILLE *    CLEAR     43  41  93 NW6       30.09R FOG
MARSHALLTOWN   FOG       36  36 100 NW6       30.10S VSB 1/2 WCI  31
NEWTON *       CLEAR     41  41 100 N7        30.10R
PELLA *        CLEAR     43  41  93 N5        30.11S FOG
$$

IAZ004>006-015-016-023>025-035-036-021100-
   NORTH CENTRAL IOWA

CITY           SKY/WX    TMP DP  RH WIND       PRES   REMARKS
ALGONA *       CLEAR     41  37  87 NW7       30.11S
CLARION *      FOG       37  37 100 CALM      30.11S VSB 1/4
ESTHERVILLE    CLEAR     39  36  89 N3        30.11S
FORT DODGE *   CLOUDY    36  30  80 CALM      30.11S VSB 3/4
MASON CITY     PTCLDY    38  37  97 CALM      30.12R
FOREST CITY *  CLEAR     36  36 100 CALM      30.10S
WEBSTER CITY * CLOUDY    39  39 100 SW5       30.10S FOG
IOWA FALLS *     N/A     37  37 100 W3        30.12S FOG
$$

IAZ007>011-017>019-026>030-037>042-050>054-066-021100-
   NORTHEAST IOWA

CITY           SKY/WX    TMP DP  RH WIND       PRES   REMARKS
CEDAR RAPIDS   MOCLDY    42  42 100 N7        30.08S
CHARLES CITY * CLOUDY    43  43 100 N8        30.11S
CLINTON *      CLOUDY    47  46  97 N7        30.08R
DECORAH *      FOG       39  39 100 N3        30.10S VSB 1
DUBUQUE        CLOUDY    45  42  89 N6        30.08F
MONTICELLO *   CLOUDY    46  43  87 N5        30.09R
OELWEIN *      CLEAR     39  39 100 NE8       30.10S WCI  34
WATERLOO       FOG       39  37  92 SW3       30.10R VSB 1/2
$$

IAZ064-065-067-068-078-021100-
   EAST CENTRAL IOWA

CITY           SKY/WX    TMP DP  RH WIND       PRES   REMARKS
DAVENPORT      CLOUDY    47  45  93 NE9       30.07S FOG
IOWA CITY      CLOUDY    46  43  89 N8        30.10S
MT. PLEASANT * CLOUDY    50  50 100 N7        30.08R
MUSCATINE *    CLOUDY    48  45  87 N8        30.08S
QUAD CITIES    CLOUDY    49  46  90 N6        30.06S FOG
$$

IAZ062-063-075>077-085>089-095>099-021100-
   SOUTHEAST IOWA

CITY           SKY/WX    TMP DP  RH WIND       PRES   REMARKS
BURLINGTON     CLOUDY    48  47  96 N7        30.06S
FAIRFIELD *    CLOUDY    46  45  93 N6        30.08S
FORT MADISON * CLOUDY    46  46 100 NW5       30.08R FOG
KEOKUK *       CLOUDY    50  48  93 CALM      30.06F
OSKALOOSA *      N/A     41  41 100 N8        30.09S
OTTUMWA        CLOUDY    45  43  93 NW7       30.08S
WASHINGTON *   MOCLDY    45  45 100 N8        30.09S
$$

ABBREVIATIONS USED IN REMARKS
   TC - TEMPERATURES IN CELSIUS
  WCI - WIND CHILL INDEX
   HX - HEAT INDEX
  VSB - VISIBILITY
$$




USA.gov is the U.S. government's official web portal to all federal, state and local government web resources and services.